Location: Franzen
(48.6167°N, 15.3833°E)
Time: 10:11:02
(UTC+00:00)

Cosmos 1140 Rocket - Pass Details

Date: 22 April 2021
Orbit: 744 x 767 km, 74.1° (Epoch: 16 May)

Event Time Altitude Azimuth Distance (km) Brightness Sun altitude
Rises 20:13:54 0° 218° (SW) 3,176 6.6 -19.1°
Reaches altitude 10° 20:16:20 10° 224° (SW) 2,256 5.9 -19.3°
Maximum altitude 20:21:16 48° 299° (WNW) 971 4.4 -19.9°
Drops below altitude 10° 20:26:14 10° 14° (NNE) 2,273 6.4 -20.4°
Sets 20:28:42 0° 20° (NNE) 3,203 7.1 -20.7°
